User: anonymous
Location: Unspecified
(0.0000°N, 0.0000°E)
Time: 09:06:26
(UTC+02:00)
Language:

Atlas Centaur 2 - Orbit

View from above orbital plane
View from above orbital plane
View from above satellite
View from above satellite

Ground track
Ground track

The orbit data is extracted from the following two-line orbital elements,

1 00694U 63047A   14206.09202012  .00000649  00000-0  70556-4 0  5541
2 00694 030.3600 218.5560 0598274 223.7450 175.7479 13.99559015534209
Epoch (UTC): 25 July 2014 02:12:30
Eccentricity: 0.0598274
inclination: 30.3600°
perigee height: 460 km
apogee height: 1330 km
right ascension of ascending node: 218.5560°
argument of perigee: 223.7450°
revolutions per day: 13.99559015
mean anomaly at epoch: 175.7479°
orbit number at epoch: 53420

The dashed part of the orbit path shows where the satellite is in the earth's shadow,  

DLR